Location: Augustenthal
(51.7167°N, 10.2833°E)
Time: 03:02:13
(UTC+00:00)

Cosmos 2297 - Pass Details

Date: 18 May 2021
Orbit: 837 x 857 km, 71.0° (Epoch: 14 June)

Event Time Altitude Azimuth Distance (km) Brightness Sun altitude
Rises 21:27:15 0° 225° (SW) 3,406 6.7 -14.7°
Reaches altitude 10° 21:29:46 10° 229° (SW) 2,471 6.0 -14.9°
Maximum altitude 21:35:19 54° 307° (NW) 1,022 4.5 -15.3°
Drops below altitude 10° 21:40:53 10° 25° (NNE) 2,472 6.7 -15.6°
Sets 21:43:24 0° 30° (NNE) 3,408 7.4 -15.8°
